When you browse on this site, cookies collect data to enhance your experience and personalize the content and advertising you see.
Visit our Privacy Policy to learn more. By continuing to use the site, you agree to this use of cookies and data.
  • In Hungary
  • List of Countries
  • For 7 days
  • Water Temperature
  • Weather Map
  • News
  • Weather Widgets
  • user-avatar
    Login

    Hourly Weather Galkovichi

    Today, 19 August, Monday

    Time Temperature Precipitation Wind Pressure Humidity
    00:00 +15°C° 0 mm 2 mps 744 mmHg 92%
    01:00 +14°C° 0 mm 2 mps 744 mmHg 92%
    02:00 +14°C° 0 mm 1 mps 744 mmHg 90%
    03:00 +14°C° 0 mm 2 mps 745 mmHg 90%
    04:00 +13°C° 0 mm 2 mps 745 mmHg 89%
    05:00 +13°C° 0 mm 2 mps 745 mmHg 89%
    06:00 +14°C° 0 mm 2 mps 745 mmHg 85%
    07:00 +16°C° 0 mm 2 mps 746 mmHg 82%
    08:00 +18°C° 0 mm 2 mps 746 mmHg 76%
    09:00 +20°C° 0 mm 3 mps 746 mmHg 73%
    10:00 +21°C° 0 mm 3 mps 746 mmHg 70%
    11:00 +24°C° 0 mm 3 mps 746 mmHg 67%
    12:00 +25°C° 0 mm 3 mps 746 mmHg 65%
    13:00 +26°C° 0 mm 4 mps 746 mmHg 63%
    14:00 +26°C° 0 mm 4 mps 746 mmHg 61%
    15:00 +26°C° 0 mm 3 mps 746 mmHg 64%
    16:00 +26°C° 0 mm 3 mps 746 mmHg 68%
    17:00 +26°C° 0 mm 2 mps 746 mmHg 72%
    18:00 +24°C° 0 mm 2 mps 747 mmHg 76%
    19:00 +21°C° 0 mm 2 mps 747 mmHg 79%
    20:00 +20°C° 0 mm 3 mps 747 mmHg 82%
    21:00 +19°C° 0 mm 3 mps 747 mmHg 83%
    22:00 +19°C° 0 mm 3 mps 747 mmHg 83%
    23:00 +18°C° 0 mm 3 mps 747 mmHg 83%

    Tomorrow, 20 August, Tuesday

    Time Temperature Precipitation Wind Pressure Humidity
    00:00 +18°C° 0 mm 3 mps 747 mmHg 83%
    01:00 +18°C° 0 mm 3 mps 747 mmHg 83%
    02:00 +17°C° 0 mm 3 mps 748 mmHg 83%
    03:00 +17°C° 0.2 mm 3 mps 748 mmHg 84%
    04:00 +17°C° 0.2 mm 3 mps 748 mmHg 85%
    05:00 +16°C° 0.2 mm 2 mps 748 mmHg 87%
    06:00 +18°C° 0.5 mm 2 mps 748 mmHg 86%
    07:00 +19°C° 0.5 mm 2 mps 748 mmHg 85%
    08:00 +21°C° 0.5 mm 2 mps 748 mmHg 84%
    09:00 +22°C° 0.1 mm 3 mps 749 mmHg 80%
    10:00 +25°C° 0.1 mm 3 mps 749 mmHg 76%
    11:00 +26°C° 0.1 mm 3 mps 749 mmHg 72%
    12:00 +27°C° 0.4 mm 3 mps 749 mmHg 70%
    13:00 +27°C° 0.4 mm 3 mps 749 mmHg 69%
    14:00 +28°C° 0.4 mm 3 mps 749 mmHg 67%
    15:00 +28°C° 0.4 mm 3 mps 749 mmHg 70%
    16:00 +28°C° 0.4 mm 2 mps 749 mmHg 72%
    17:00 +27°C° 0.4 mm 1 mps 749 mmHg 75%
    18:00 +26°C° 0.2 mm 1 mps 749 mmHg 78%
    19:00 +24°C° 0.2 mm 2 mps 749 mmHg 81%
    20:00 +21°C° 0.2 mm 2 mps 749 mmHg 85%
    21:00 +21°C° 0 mm 2 mps 749 mmHg 85%
    22:00 +20°C° 0 mm 2 mps 749 mmHg 86%
    23:00 +20°C° 0 mm 2 mps 749 mmHg 87%

    Day after tomorrow, 21 August, Wednesday

    Time Temperature Precipitation Wind Pressure Humidity
    00:00 +19°C° 0 mm 2 mps 749 mmHg 87%
    01:00 +19°C° 0 mm 2 mps 749 mmHg 87%
    02:00 +19°C° 0 mm 2 mps 750 mmHg 87%
    03:00 +18°C° 0 mm 2 mps 749 mmHg 86%
    04:00 +18°C° 0 mm 2 mps 749 mmHg 86%
    05:00 +18°C° 0 mm 2 mps 749 mmHg 86%
    06:00 +19°C° 0 mm 2 mps 749 mmHg 84%
    07:00 +20°C° 0 mm 3 mps 749 mmHg 81%
    08:00 +21°C° 0 mm 3 mps 750 mmHg 78%
    09:00 +24°C° 0 mm 3 mps 750 mmHg 75%
    10:00 +25°C° 0 mm 3 mps 750 mmHg 71%
    11:00 +27°C° 0 mm 3 mps 750 mmHg 67%
    12:00 +27°C° 0 mm 3 mps 749 mmHg 65%
    13:00 +28°C° 0 mm 3 mps 749 mmHg 63%
    14:00 +28°C° 0 mm 3 mps 749 mmHg 60%
    15:00 +28°C° 0 mm 3 mps 749 mmHg 64%
    16:00 +28°C° 0 mm 3 mps 748 mmHg 67%
    17:00 +28°C° 0 mm 2 mps 748 mmHg 71%
    18:00 +26°C° 0 mm 2 mps 748 mmHg 74%
    19:00 +24°C° 0 mm 2 mps 748 mmHg 77%
    20:00 +21°C° 0 mm 3 mps 748 mmHg 80%
    21:00 +21°C° 0 mm 3 mps 748 mmHg 80%
    22:00 +20°C° 0 mm 3 mps 748 mmHg 80%
    23:00 +20°C° 0 mm 3 mps 748 mmHg 79%

    22 August, Thursday

    Time Temperature Precipitation Wind Pressure Humidity
    00:00 +19°C° 0 mm 3 mps 748 mmHg 79%
    01:00 +19°C° 0 mm 3 mps 747 mmHg 79%
    02:00 +18°C° 0 mm 2 mps 747 mmHg 79%
    03:00 +18°C° 0.1 mm 2 mps 747 mmHg 80%
    04:00 +18°C° 0.1 mm 2 mps 747 mmHg 81%
    05:00 +17°C° 0.1 mm 2 mps 747 mmHg 82%
    06:00 +18°C° 0.2 mm 2 mps 747 mmHg 81%
    07:00 +20°C° 0.2 mm 1 mps 747 mmHg 80%
    08:00 +21°C° 0.2 mm 1 mps 748 mmHg 80%
    09:00 +21°C° 0.4 mm 1 mps 748 mmHg 81%
    10:00 +22°C° 0.4 mm 1 mps 748 mmHg 82%
    11:00 +22°C° 0.4 mm 1 mps 748 mmHg 83%
    12:00 +21°C° 0.1 mm 2 mps 748 mmHg 84%
    13:00 +21°C° 0.1 mm 3 mps 748 mmHg 86%
    14:00 +21°C° 0.1 mm 3 mps 749 mmHg 88%
    15:00 +20°C° 0 mm 4 mps 749 mmHg 88%
    16:00 +19°C° 0 mm 5 mps 749 mmHg 89%
    17:00 +17°C° 0 mm 5 mps 749 mmHg 90%
    18:00 +17°C° 0 mm 5 mps 749 mmHg 89%
    19:00 +16°C° 0 mm 5 mps 749 mmHg 89%
    20:00 +16°C° 0 mm 5 mps 749 mmHg 89%
    21:00 +16°C° 0 mm 5 mps 750 mmHg 89%
    22:00 +15°C° 0 mm 4 mps 750 mmHg 88%
    23:00 +15°C° 0 mm 4 mps 750 mmHg 88%

    23 August, Friday

    Time Temperature Precipitation Wind Pressure Humidity
    00:00 +15°C° 0 mm 4 mps 750 mmHg 89%
    01:00 +14°C° 0 mm 4 mps 750 mmHg 90%
    02:00 +14°C° 0 mm 4 mps 750 mmHg 91%
    03:00 +14°C° 0 mm 4 mps 750 mmHg 91%
    04:00 +13°C° 0 mm 4 mps 750 mmHg 92%
    05:00 +13°C° 0 mm 4 mps 750 mmHg 92%
    06:00 +14°C° 0 mm 4 mps 750 mmHg 89%
    07:00 +15°C° 0 mm 5 mps 750 mmHg 86%
    08:00 +16°C° 0 mm 5 mps 751 mmHg 84%
    09:00 +17°C° 0 mm 5 mps 751 mmHg 79%
    10:00 +20°C° 0 mm 5 mps 751 mmHg 75%
    11:00 +21°C° 0 mm 5 mps 751 mmHg 70%
    12:00 +21°C° 0 mm 5 mps 751 mmHg 69%
    13:00 +22°C° 0 mm 5 mps 751 mmHg 67%
    14:00 +22°C° 0 mm 5 mps 751 mmHg 65%
    15:00 +22°C° 0 mm 4 mps 751 mmHg 68%
    16:00 +21°C° 0 mm 4 mps 751 mmHg 71%
    17:00 +21°C° 0 mm 4 mps 751 mmHg 74%
    18:00 +19°C° 0 mm 4 mps 752 mmHg 77%
    19:00 +17°C° 0 mm 3 mps 752 mmHg 81%
    20:00 +16°C° 0 mm 3 mps 752 mmHg 84%
    21:00 +14°C° 0 mm 3 mps 752 mmHg 85%
    22:00 +13°C° 0 mm 3 mps 752 mmHg 85%
    23:00 +14°C° 0 mm 2 mps 752 mmHg 85%

    24 August, Saturday

    Time Temperature Precipitation Wind Pressure Humidity
    00:00 +13°C° 0 mm 2 mps 752 mmHg 86%
    01:00 +13°C° 0 mm 2 mps 753 mmHg 87%
    02:00 +12°C° 0 mm 2 mps 753 mmHg 88%
    03:00 +12°C° 0 mm 2 mps 753 mmHg 89%
    04:00 +12°C° 0 mm 2 mps 753 mmHg 90%
    05:00 +12°C° 0 mm 2 mps 753 mmHg 91%
    06:00 +13°C° 0 mm 2 mps 753 mmHg 85%
    07:00 +15°C° 0 mm 2 mps 753 mmHg 80%
    08:00 +17°C° 0 mm 2 mps 753 mmHg 75%
    09:00 +18°C° 0 mm 2 mps 754 mmHg 70%
    10:00 +20°C° 0 mm 2 mps 754 mmHg 65%
    11:00 +21°C° 0 mm 2 mps 754 mmHg 60%
    12:00 +21°C° 0 mm 2 mps 754 mmHg 58%
    13:00 +23°C° 0 mm 2 mps 753 mmHg 57%
    14:00 +23°C° 0 mm 2 mps 753 mmHg 55%
    15:00 +23°C° 0 mm 1 mps 753 mmHg 59%
    16:00 +23°C° 0 mm 1 mps 753 mmHg 62%
    17:00 +23°C° 0 mm 1 mps 753 mmHg 66%
    18:00 +21°C° 0 mm 1 mps 753 mmHg 71%
    19:00 +19°C° 0 mm 1 mps 753 mmHg 76%
    20:00 +16°C° 0 mm 1 mps 753 mmHg 81%
    21:00 +16°C° 0 mm 1 mps 753 mmHg 83%
    22:00 +15°C° 0 mm 1 mps 753 mmHg 84%
    23:00 +15°C° 0 mm 1 mps 753 mmHg 85%
    Show more